| time (UTC) | temp C | wind direction | speed KPH | gust KPH | rain 1hr cm | rain 24hr cm | rain mn cm | humidity % | barometer mb |
| 20260509161910 | 25 | 346 | 11.3 | 19.3 | 0.00 | 0.00 | 0.00 | 76 | 1009.6 |
| 20260509161409 | 25 | 10 | 9.7 | 19.3 | 0.00 | 0.00 | 0.00 | 78 | 1009.6 |
| 20260509160910 | 25 | 17 | 14.5 | 19.3 | 0.00 | 0.00 | 0.00 | 78 | 1009.6 |
| 20260509160409 | 25 | 2 | 12.9 | 19.3 | 0.00 | 0.00 | 0.00 | 78 | 1009.6 |
| 20260509155910 | 24 | 27 | 14.5 | 19.3 | 0.00 | 0.00 | 0.00 | 78 | 1009.6 |
| 20260509155409 | 25 | 21 | 9.7 | 19.3 | 0.00 | 0.00 | 0.00 | 79 | 1009.6 |
| 20260509154909 | 24 | 13 | 9.7 | 16.1 | 0.00 | 0.00 | 0.00 | 80 | 1009.6 |
| 20260509154410 | 24 | 6 | 6.4 | 14.5 | 0.00 | 0.00 | 0.00 | 81 | 1009.6 |
| 20260509153909 | 24 | 2 | 8.0 | 14.5 | 0.00 | 0.00 | 0.00 | 81 | 1009.5 |
| 20260509153410 | 23 | 355 | 8.0 | 14.5 | 0.00 | 0.00 | 0.00 | 81 | 1009.5 |
| 20260509152909 | 23 | 354 | 9.7 | 14.5 | 0.00 | 0.00 | 0.00 | 81 | 1009.5 |
| 20260509152410 | 23 | 23 | 6.4 | 14.5 | 0.00 | 0.00 | 0.00 | 82 | 1009.5 |
| 20260509151910 | 23 | 14 | 9.7 | 16.1 | 0.00 | 0.00 | 0.00 | 83 | 1009.5 |
| 20260509151409 | 23 | 355 | 8.0 | 16.1 | 0.00 | 0.00 | 0.00 | 82 | 1009.5 |
| 20260509150409 | 23 | 3 | 9.7 | 16.1 | 0.00 | 0.00 | 0.00 | 82 | 1009.5 |
| 20260509145410 | 23 | 15 | 8.0 | 16.1 | 0.00 | 0.00 | 0.00 | 84 | 1009.5 |
| 20260509144910 | 22 | 5 | 9.7 | 16.1 | 0.00 | 0.00 | 0.00 | 84 | 1009.5 |
| 20260509144410 | 22 | 7 | 8.0 | 14.5 | 0.00 | 0.00 | 0.00 | 84 | 1009.5 |
| 20260509143910 | 22 | 358 | 9.7 | 16.1 | 0.00 | 0.00 | 0.00 | 85 | 1009.5 |
| 20260509142911 | 22 | 0 | 11.3 | 16.1 | 0.00 | 0.00 | 0.00 | 85 | 1009.6 |
| 20260509142410 | 21 | 13 | 9.7 | 16.1 | 0.00 | 0.00 | 0.00 | 86 | 1009.5 |
| 20260509141910 | 21 | 348 | 9.7 | 19.3 | 0.00 | 0.00 | 0.00 | 86 | 1009.5 |
| 20260509141411 | 21 | 11 | 12.9 | 19.3 | 0.00 | 0.00 | 0.00 | 86 | 1009.5 |
| 20260509140911 | 21 | 7 | 11.3 | 14.5 | 0.00 | 0.00 | 0.00 | 87 | 1009.6 |
| 20260509140410 | 21 | 352 | 8.0 | 19.3 | 0.00 | 0.00 | 0.00 | 87 | 1009.7 |
| 20260509135410 | 20 | 8 | 11.3 | 16.1 | 0.00 | 0.00 | 0.00 | 88 | 1009.7 |
| 20260509134910 | 20 | 353 | 9.7 | 16.1 | 0.00 | 0.00 | 0.00 | 88 | 1009.6 |
| 20260509134411 | 20 | 353 | 9.7 | 12.9 | 0.00 | 0.00 | 0.00 | 88 | 1009.7 |
| 20260509133911 | 20 | 344 | 8.0 | 16.1 | 0.00 | 0.00 | 0.00 | 88 | 1009.6 |
| 20260509133410 | 20 | 351 | 8.0 | 16.1 | 0.00 | 0.00 | 0.00 | 88 | 1009.5 |
| 20260509132910 | 20 | 323 | 8.0 | 14.5 | 0.00 | 0.00 | 0.00 | 88 | 1009.6 |
| 20260509132411 | 20 | 315 | 6.4 | 19.3 | 0.00 | 0.00 | 0.00 | 88 | 1009.6 |
| 20260509131910 | 20 | 357 | 9.7 | 19.3 | 0.00 | 0.00 | 0.00 | 88 | 1009.5 |
| 20260509131411 | 20 | 332 | 8.0 | 14.5 | 0.00 | 0.00 | 0.00 | 88 | 1009.6 |
| 20260509130910 | 20 | 284 | 9.7 | 14.5 | 0.00 | 0.00 | 0.00 | 88 | 1009.7 |
| 20260509125410 | 20 | 293 | 4.8 | 11.3 | 0.00 | 0.00 | 0.00 | 89 | 1009.6 |
| 20260509124911 | 20 | 301 | 4.8 | 8.0 | 0.00 | 0.00 | 0.00 | 89 | 1009.6 |
| 20260509124410 | 20 | 329 | 0.0 | 4.8 | 0.00 | 0.00 | 0.00 | 89 | 1009.4 |
| 20260509123911 | 20 | 292 | 1.6 | 4.8 | 0.00 | 0.00 | 0.00 | 89 | 1009.4 |
| 20260509123410 | 20 | 5 | 1.6 | 4.8 | 0.00 | 0.00 | 0.00 | 89 | 1009.4 |
| 20260509122911 | 19 | 325 | 1.6 | 4.8 | 0.00 | 0.00 | 0.00 | 89 | 1009.3 |
| 20260509122410 | 19 | 325 | 3.2 | 4.8 | 0.00 | 0.00 | 0.00 | 89 | 1009.4 |
| 20260509121911 | 19 | 325 | 3.2 | 4.8 | 0.00 | 0.00 | 0.00 | 89 | 1009.3 |
| 20260509121411 | 19 | 291 | 1.6 | 8.0 | 0.00 | 0.00 | 0.00 | 89 | 1009.3 |
| 20260509120910 | 19 | 333 | 4.8 | 9.7 | 0.00 | 0.00 | 0.00 | 89 | 1009.2 |
| 20260509120411 | 19 | 313 | 4.8 | 9.7 | 0.00 | 0.00 | 0.00 | 88 | 1009.1 |
| 20260509115911 | 19 | 280 | 8.0 | 9.7 | 0.00 | 0.08 | 0.00 | 88 | 1009.2 |
| 20260509115410 | 19 | 290 | 1.6 | 4.8 | 0.00 | 0.08 | 0.00 | 88 | 1009.1 |
| 20260509114911 | 19 | 290 | 1.6 | 9.7 | 0.00 | 0.10 | 0.00 | 88 | 1009.0 |
| 20260509114411 | 19 | 292 | 3.2 | 9.7 | 0.00 | 0.15 | 0.00 | 88 | 1008.9 |
| 20260509113911 | 19 | 310 | 1.6 | 4.8 | 0.00 | 0.18 | 0.00 | 88 | 1008.8 |
| 20260509113411 | 19 | 306 | 3.2 | 9.7 | 0.00 | 0.38 | 0.00 | 88 | 1008.8 |
| 20260509112911 | 19 | 265 | 3.2 | 9.7 | 0.00 | 0.69 | 0.00 | 88 | 1008.8 |
| 20260509112411 | 19 | 316 | 3.2 | 4.8 | 0.00 | 0.99 | 0.00 | 88 | 1008.6 |
| 20260509111911 | 19 | 13 | 3.2 | 4.8 | 0.00 | 1.02 | 0.00 | 88 | 1008.5 |
| 20260509111411 | 19 | 13 | 1.6 | 4.8 | 0.00 | 1.09 | 0.00 | 88 | 1008.2 |
| 20260509110911 | 20 | 47 | 3.2 | 8.0 | 0.00 | 1.09 | 0.00 | 88 | 1008.0 |
| 20260509110411 | 19 | 35 | 3.2 | 8.0 | 0.00 | 1.09 | 0.00 | 88 | 1007.9 |
| 20260509105911 | 19 | 26 | 3.2 | 4.8 | 0.00 | 1.09 | 0.00 | 88 | 1007.8 |
| 20260509105411 | 19 | 39 | 3.2 | 8.0 | 0.00 | 1.09 | 0.00 | 88 | 1007.9 |
| 20260509104912 | 18 | 355 | 4.8 | 8.0 | 0.00 | 1.09 | 0.00 | 88 | 1007.9 |
| 20260509104411 | 18 | 359 | 4.8 | 8.0 | 0.00 | 1.09 | 0.00 | 88 | 1007.9 |
| 20260509103911 | 19 | 347 | 4.8 | 8.0 | 0.00 | 1.09 | 0.00 | 87 | 1007.8 |
| 20260509102913 | 20 | 329 | 3.2 | 4.8 | 0.00 | 1.09 | 0.00 | 86 | 1007.8 |
| 20260509102412 | 20 | 32 | 3.2 | 4.8 | 0.00 | 1.09 | 0.00 | 86 | 1007.8 |
| 20260509101412 | 20 | 72 | 0.0 | 1.6 | 0.00 | 1.14 | 0.00 | 86 | 1007.8 |
| 20260509100913 | 20 | 72 | 0.0 | 4.8 | 0.00 | 1.24 | 0.00 | 86 | 1007.7 |
| 20260509100411 | 21 | 72 | 0.0 | 11.3 | 0.00 | 1.30 | 0.00 | 86 | 1007.4 |
| 20260509095912 | 20 | 88 | 3.2 | 12.9 | 0.00 | 1.30 | 0.00 | 86 | 1007.0 |
| 20260509095411 | 20 | 88 | 4.8 | 14.5 | 0.00 | 1.30 | 0.00 | 87 | 1006.9 |
| 20260509094912 | 20 | 89 | 4.8 | 14.5 | 0.00 | 1.40 | 0.00 | 86 | 1006.9 |
| 20260509092412 | 20 | 57 | 6.4 | 20.9 | 0.00 | 1.47 | 0.00 | 87 | 1006.7 |
| 20260509091414 | 20 | 92 | 11.3 | 20.9 | 0.00 | 1.47 | 0.00 | 87 | 1006.7 |
| 20260509090912 | 20 | 92 | 9.7 | 19.3 | 0.00 | 1.47 | 0.00 | 87 | 1006.8 |
| 20260509090412 | 20 | 84 | 9.7 | 24.1 | 0.00 | 1.47 | 0.00 | 87 | 1006.9 |
| 20260509085912 | 20 | 90 | 11.3 | 25.7 | 0.00 | 1.47 | 0.00 | 87 | 1006.8 |
| 20260509084912 | 20 | 75 | 14.5 | 24.1 | 0.00 | 1.47 | 0.00 | 86 | 1006.8 |
| 20260509083912 | 20 | 65 | 11.3 | 20.9 | 0.00 | 1.47 | 0.00 | 86 | 1006.9 |
| 20260509083412 | 21 | 54 | 9.7 | 20.9 | 0.00 | 1.47 | 0.00 | 86 | 1006.8 |
| 20260509082912 | 21 | 49 | 14.5 | 20.9 | 0.00 | 1.47 | 0.00 | 86 | 1006.8 |
| 20260509082412 | 21 | 59 | 11.3 | 27.4 | 0.00 | 1.47 | 0.00 | 86 | 1006.7 |
| 20260509081913 | 21 | 30 | 12.9 | 27.4 | 0.00 | 1.47 | 0.00 | 86 | 1007.0 |
| 20260509081412 | 21 | 11 | 19.3 | 27.4 | 0.00 | 1.47 | 0.00 | 86 | 1007.0 |
| 20260509080413 | 21 | 175 | 8.0 | 24.1 | 0.00 | 1.47 | 0.00 | 86 | 1005.7 |
| 20260509075912 | 21 | 154 | 11.3 | 24.1 | 0.00 | 1.47 | 0.00 | 86 | 1005.6 |
| 20260509075412 | 21 | 157 | 11.3 | 24.1 | 0.00 | 1.47 | 0.00 | 86 | 1005.7 |
| 20260509074913 | 21 | 143 | 16.1 | 24.1 | 0.00 | 1.47 | 0.00 | 86 | 1005.6 |
| 20260509074414 | 21 | 151 | 16.1 | 24.1 | 0.00 | 1.47 | 0.00 | 86 | 1005.9 |
| 20260509073912 | 21 | 162 | 14.5 | 22.5 | 0.00 | 1.47 | 0.00 | 86 | 1006.4 |
| 20260509073413 | 21 | 161 | 9.7 | 22.5 | 0.00 | 1.47 | 0.00 | 86 | 1006.7 |
| 20260509072913 | 21 | 175 | 12.9 | 22.5 | 0.00 | 1.47 | 0.00 | 86 | 1007.1 |
| 20260509072412 | 21 | 171 | 11.3 | 19.3 | 0.00 | 1.47 | 0.00 | 86 | 1007.4 |
| 20260509071413 | 21 | 186 | 8.0 | 12.9 | 0.00 | 1.47 | 0.00 | 86 | 1007.7 |
| 20260509070913 | 21 | 162 | 8.0 | 11.3 | 0.00 | 1.47 | 0.00 | 86 | 1007.8 |
| 20260509070413 | 21 | 138 | 3.2 | 14.5 | 0.00 | 1.47 | 0.00 | 86 | 1007.9 |
| 20260509065413 | 20 | 189 | 9.7 | 20.9 | 0.00 | 1.47 | 0.00 | 87 | 1008.1 |
| 20260509064913 | 20 | 188 | 11.3 | 20.9 | 0.00 | 1.47 | 0.00 | 86 | 1008.0 |
| 20260509064412 | 20 | 203 | 11.3 | 19.3 | 0.00 | 1.47 | 0.00 | 86 | 1008.0 |
| 20260509063912 | 20 | 209 | 12.9 | 20.9 | 0.00 | 1.47 | 0.00 | 86 | 1007.9 |
| 20260509063413 | 20 | 221 | 12.9 | 20.9 | 0.00 | 1.47 | 0.00 | 86 | 1008.2 |
| 20260509062913 | 20 | 215 | 11.3 | 27.4 | 0.00 | 1.47 | 0.00 | 86 | 1008.4 |
| 20260509062413 | 20 | 227 | 14.5 | 27.4 | 0.00 | 1.47 | 0.00 | 86 | 1008.5 |
| 20260509060913 | 20 | 231 | 12.9 | 22.5 | 0.00 | 1.47 | 0.00 | 87 | 1008.7 |
| 20260509060413 | 20 | 233 | 14.5 | 22.5 | 0.00 | 1.47 | 0.00 | 87 | 1008.5 |
| 20260509055913 | 20 | 231 | 12.9 | 20.9 | 0.00 | 1.47 | 0.00 | 87 | 1008.4 |
| 20260509055414 | 20 | 220 | 9.7 | 16.1 | 0.00 | 1.47 | 0.00 | 86 | 1008.5 |
| 20260509054914 | 20 | 216 | 9.7 | 14.5 | 0.00 | 1.47 | 0.00 | 86 | 1008.5 |
| 20260509054413 | 20 | 215 | 11.3 | 16.1 | 0.00 | 1.47 | 0.00 | 86 | 1008.4 |
| 20260509053913 | 20 | 215 | 11.3 | 16.1 | 0.00 | 1.47 | 0.00 | 86 | 1008.6 |
| 20260509053413 | 20 | 213 | 11.3 | 16.1 | 0.00 | 1.47 | 0.00 | 86 | 1008.5 |
| 20260509052415 | 20 | 233 | 8.0 | 12.9 | 0.00 | 1.47 | 0.00 | 86 | 1008.9 |
| 20260509051914 | 20 | 199 | 9.7 | 12.9 | 0.00 | 1.47 | 0.00 | 85 | 1008.7 |
| 20260509051414 | 20 | 191 | 8.0 | 11.3 | 0.00 | 1.47 | 0.00 | 85 | 1009.0 |
| 20260509050914 | 20 | 190 | 3.2 | 9.7 | 0.00 | 1.47 | 0.00 | 84 | 1009.3 |
| 20260509050414 | 21 | 173 | 8.0 | 9.7 | 0.00 | 1.47 | 0.00 | 84 | 1009.3 |
| 20260509045913 | 21 | 299 | 6.4 | 8.0 | 0.00 | 1.47 | 0.00 | 84 | 1009.6 |
| 20260509045413 | 21 | 299 | 4.8 | 8.0 | 0.00 | 1.47 | 1.47 | 84 | 1009.9 |
| 20260509044914 | 21 | 299 | 6.4 | 14.5 | 0.00 | 1.47 | 1.47 | 84 | 1010.2 |
| 20260509044413 | 21 | 301 | 4.8 | 16.1 | 0.00 | 1.47 | 1.47 | 84 | 1010.3 |
| 20260509043913 | 21 | 325 | 9.7 | 20.9 | 0.00 | 1.47 | 1.47 | 84 | 1010.4 |
| 20260509043413 | 21 | 336 | 14.5 | 20.9 | 0.00 | 1.47 | 1.47 | 84 | 1010.6 |
| 20260509042914 | 21 | 338 | 16.1 | 20.9 | 0.00 | 1.47 | 1.47 | 83 | 1010.7 |
| 20260509041915 | 21 | 224 | 1.6 | 4.8 | 0.00 | 1.47 | 1.47 | 83 | 1009.2 |
| 20260509041414 | 21 | 224 | 0.0 | 8.0 | 0.00 | 1.47 | 1.47 | 83 | 1009.1 |
| 20260509040914 | 21 | 224 | 4.8 | 8.0 | 0.00 | 1.47 | 1.47 | 83 | 1008.9 |
| 20260509035913 | 21 | 188 | 4.8 | 9.7 | 0.00 | 1.47 | 1.47 | 82 | 1008.8 |
| 20260509035414 | 21 | 137 | 4.8 | 9.7 | 0.00 | 1.47 | 1.47 | 82 | 1008.7 |
| 20260509033913 | 21 | 81 | 8.0 | 12.9 | 0.00 | 1.47 | 1.47 | 82 | 1008.6 |
| 20260509033414 | 21 | 137 | 1.6 | 20.9 | 0.00 | 1.47 | 1.47 | 82 | 1008.3 |
| 20260509032914 | 21 | 189 | 11.3 | 20.9 | 0.00 | 1.47 | 1.47 | 82 | 1007.8 |
| 20260509032415 | 21 | 183 | 11.3 | 16.1 | 0.00 | 1.47 | 1.47 | 82 | 1007.9 |
| 20260509031914 | 21 | 171 | 9.7 | 16.1 | 0.00 | 1.47 | 1.47 | 82 | 1008.1 |
| 20260509031414 | 21 | 168 | 8.0 | 19.3 | 0.00 | 1.47 | 1.47 | 82 | 1008.0 |
| 20260509030914 | 21 | 182 | 11.3 | 24.1 | 0.00 | 1.47 | 1.47 | 81 | 1007.9 |
| 20260509030415 | 21 | 162 | 14.5 | 24.1 | 0.00 | 1.47 | 1.47 | 81 | 1007.9 |
| 20260509025915 | 22 | 165 | 14.5 | 19.3 | 0.00 | 1.47 | 1.47 | 80 | 1008.3 |
| 20260509025414 | 22 | 136 | 6.4 | 12.9 | 0.00 | 1.47 | 1.47 | 80 | 1008.9 |
| 20260509024914 | 22 | 78 | 3.2 | 12.9 | 0.00 | 1.47 | 1.47 | 82 | 1009.3 |
| 20260509024414 | 22 | 48 | 8.0 | 14.5 | 0.00 | 1.47 | 1.47 | 81 | 1009.4 |
| 20260509023414 | 22 | 29 | 8.0 | 11.3 | 0.00 | 1.47 | 1.47 | 81 | 1009.0 |
| 20260509022914 | 22 | 28 | 8.0 | 9.7 | 0.00 | 1.47 | 1.47 | 81 | 1008.8 |
| 20260509022416 | 22 | 54 | 4.8 | 8.0 | 0.00 | 1.47 | 1.47 | 81 | 1008.5 |
| 20260509021916 | 22 | 48 | 4.8 | 8.0 | 0.00 | 1.47 | 1.47 | 81 | 1008.3 |
| 20260509021415 | 21 | 53 | 3.2 | 14.5 | 0.00 | 1.47 | 1.47 | 82 | 1007.9 |
| 20260509020415 | 21 | 143 | 8.0 | 14.5 | 0.00 | 1.47 | 1.47 | 82 | 1007.3 |
| 20260509015914 | 21 | 128 | 4.8 | 14.5 | 0.00 | 1.47 | 1.47 | 82 | 1007.1 |
| 20260509015414 | 21 | 128 | 4.8 | 16.1 | 0.00 | 1.47 | 1.47 | 81 | 1006.9 |
| 20260509014915 | 21 | 157 | 9.7 | 16.1 | 0.00 | 1.47 | 1.47 | 81 | 1006.6 |
| 20260509014415 | 22 | 156 | 8.0 | 12.9 | 0.00 | 1.47 | 1.47 | 80 | 1006.7 |
| 20260509013915 | 22 | 141 | 4.8 | 14.5 | 0.00 | 1.47 | 1.47 | 80 | 1006.9 |
| 20260509013414 | 22 | 135 | 8.0 | 19.3 | 0.00 | 1.47 | 1.47 | 80 | 1006.8 |
| 20260509012914 | 22 | 144 | 9.7 | 19.3 | 0.00 | 1.47 | 1.47 | 80 | 1006.8 |
| 20260509011415 | 22 | 145 | 8.0 | 19.3 | 0.00 | 1.47 | 1.47 | 78 | 1006.9 |
| 20260509010915 | 22 | 152 | 9.7 | 19.3 | 0.00 | 1.47 | 1.47 | 78 | 1006.9 |
| 20260509010415 | 22 | 160 | 12.9 | 19.3 | 0.00 | 1.47 | 1.47 | 77 | 1006.9 |
| 20260509005915 | 22 | 148 | 11.3 | 14.5 | 0.00 | 1.47 | 1.47 | 77 | 1007.1 |
| 20260509004915 | 23 | 145 | 9.7 | 16.1 | 0.00 | 1.47 | 1.47 | 77 | 1007.1 |
| 20260509004415 | 23 | 139 | 8.0 | 16.1 | 0.00 | 1.47 | 1.47 | 76 | 1007.1 |
| 20260509003916 | 23 | 148 | 9.7 | 16.1 | 0.00 | 1.47 | 1.47 | 76 | 1007.1 |
| 20260509003415 | 23 | 148 | 8.0 | 16.1 | 0.00 | 1.47 | 1.47 | 76 | 1007.1 |
| 20260509002915 | 23 | 159 | 9.7 | 16.1 | 0.00 | 1.47 | 1.47 | 76 | 1007.1 |
| 20260509001916 | 23 | 154 | 9.7 | 19.3 | 0.00 | 1.47 | 1.47 | 76 | 1006.8 |
| 20260509001415 | 23 | 162 | 12.9 | 24.1 | 0.00 | 1.47 | 1.47 | 75 | 1006.7 |
| 20260509000916 | 23 | 141 | 11.3 | 25.7 | 0.00 | 1.47 | 1.47 | 75 | 1006.6 |
| 20260509000417 | 23 | 157 | 16.1 | 25.7 | 0.00 | 1.47 | 1.47 | 75 | 1006.6 |
| 20260508235915 | 23 | 146 | 16.1 | 25.7 | 0.00 | 1.47 | 1.47 | 74 | 1006.5 |
| 20260508235415 | 23 | 154 | 17.7 | 25.7 | 0.00 | 1.47 | 1.47 | 74 | 1006.5 |
| 20260508234915 | 23 | 158 | 16.1 | 27.4 | 0.00 | 1.47 | 1.47 | 73 | 1006.5 |
| 20260508234415 | 23 | 162 | 16.1 | 27.4 | 0.00 | 1.47 | 1.47 | 73 | 1006.6 |
| 20260508233915 | 23 | 160 | 17.7 | 25.7 | 0.00 | 1.47 | 1.47 | 73 | 1006.7 |
| 20260508233415 | 23 | 154 | 16.1 | 24.1 | 0.00 | 1.47 | 1.47 | 72 | 1006.7 |
| 20260508232915 | 23 | 164 | 16.1 | 27.4 | 0.00 | 1.47 | 1.47 | 72 | 1006.8 |
| 20260508232415 | 24 | 147 | 14.5 | 27.4 | 0.00 | 1.47 | 1.47 | 72 | 1006.8 |
| 20260508231916 | 24 | 148 | 14.5 | 27.4 | 0.00 | 1.47 | 1.47 | 72 | 1006.9 |
| 20260508230916 | 24 | 151 | 14.5 | 20.9 | 0.00 | 1.47 | 1.47 | 72 | 1006.9 |
| 20260508230416 | 24 | 156 | 12.9 | 20.9 | 0.00 | 1.47 | 1.47 | 72 | 1007.1 |
| 20260508225917 | 24 | 164 | 11.3 | 20.9 | 0.00 | 1.47 | 1.47 | 72 | 1007.1 |
| 20260508224916 | 24 | 147 | 14.5 | 25.7 | 0.00 | 1.47 | 1.47 | 71 | 1007.0 |
| 20260508223916 | 24 | 188 | 16.1 | 25.7 | 0.00 | 1.47 | 1.47 | 71 | 1007.0 |
| 20260508222916 | 24 | 147 | 19.3 | 25.7 | 0.00 | 1.47 | 1.47 | 70 | 1007.2 |
| 20260508222415 | 24 | 137 | 16.1 | 24.1 | 0.00 | 1.47 | 1.47 | 70 | 1007.1 |
| 20260508221415 | 24 | 167 | 16.1 | 25.7 | 0.00 | 1.47 | 1.47 | 71 | 1007.1 |
| 20260508220916 | 24 | 166 | 16.1 | 24.1 | 0.00 | 1.47 | 1.47 | 70 | 1007.1 |
| 20260508220415 | 24 | 160 | 17.7 | 24.1 | 0.00 | 1.47 | 1.47 | 70 | 1007.2 |
| 20260508215916 | 24 | 152 | 16.1 | 29.0 | 0.00 | 1.47 | 1.47 | 70 | 1007.2 |
| 20260508215416 | 24 | 134 | 14.5 | 29.0 | 0.00 | 1.47 | 1.47 | 71 | 1007.1 |
| 20260508214916 | 24 | 168 | 14.5 | 27.4 | 0.00 | 1.47 | 1.47 | 71 | 1007.2 |
| 20260508214416 | 24 | 160 | 17.7 | 27.4 | 0.00 | 1.47 | 1.47 | 70 | 1007.2 |
| 20260508213916 | 24 | 193 | 16.1 | 24.1 | 0.00 | 1.47 | 1.47 | 71 | 1007.3 |
| 20260508213417 | 24 | 184 | 16.1 | 24.1 | 0.00 | 1.47 | 1.47 | 71 | 1007.3 |
| 20260508212917 | 24 | 176 | 11.3 | 24.1 | 0.00 | 1.47 | 1.47 | 70 | 1007.4 |
| 20260508212416 | 24 | 175 | 11.3 | 20.9 | 0.00 | 1.47 | 1.47 | 71 | 1007.4 |
| 20260508210916 | 24 | 151 | 16.1 | 24.1 | 0.00 | 1.47 | 1.47 | 72 | 1007.3 |
| 20260508210417 | 24 | 184 | 14.5 | 25.7 | 0.00 | 1.47 | 1.47 | 72 | 1007.4 |
| 20260508205916 | 24 | 189 | 17.7 | 27.4 | 0.00 | 1.47 | 1.47 | 70 | 1007.6 |
| 20260508205416 | 24 | 185 | 20.9 | 27.4 | 0.00 | 1.47 | 1.47 | 70 | 1007.8 |
| 20260508204916 | 25 | 206 | 17.7 | 32.2 | 0.00 | 1.47 | 1.47 | 71 | 1008.0 |
| 20260508204416 | 25 | 187 | 19.3 | 32.2 | 0.00 | 1.47 | 1.47 | 72 | 1008.1 |
| 20260508203917 | 25 | 178 | 14.5 | 32.2 | 0.00 | 1.47 | 1.47 | 71 | 1008.2 |
| 20260508203416 | 25 | 164 | 19.3 | 32.2 | 0.00 | 1.47 | 1.47 | 70 | 1008.3 |
| 20260508202917 | 25 | 172 | 22.5 | 32.2 | 0.00 | 1.47 | 1.47 | 70 | 1008.5 |
| 20260508201916 | 25 | 183 | 19.3 | 32.2 | 0.00 | 1.47 | 1.47 | 70 | 1008.7 |
| 20260508201417 | 25 | 152 | 14.5 | 29.0 | 0.00 | 1.47 | 1.47 | 70 | 1008.7 |
| 20260508195916 | 23 | 167 | 14.5 | 20.9 | 0.00 | 1.47 | 1.47 | 70 | 1008.9 |
| 20260508195416 | 23 | 151 | 14.5 | 20.9 | 0.00 | 1.47 | 1.47 | 71 | 1009.0 |
| 20260508194917 | 23 | 165 | 11.3 | 19.3 | 0.00 | 1.47 | 1.47 | 71 | 1009.2 |
| 20260508193917 | 24 | 152 | 8.0 | 19.3 | 0.00 | 1.47 | 1.47 | 70 | 1009.4 |
| 20260508193416 | 24 | 148 | 11.3 | 19.3 | 0.00 | 1.47 | 1.47 | 69 | 1009.4 |
| 20260508192917 | 24 | 161 | 8.0 | 19.3 | 0.00 | 1.47 | 1.47 | 70 | 1009.4 |
| 20260508191417 | 24 | 162 | 12.9 | 22.5 | 0.00 | 1.47 | 1.47 | 69 | 1009.5 |
| 20260508190917 | 24 | 152 | 11.3 | 22.5 | 0.00 | 1.47 | 1.47 | 69 | 1009.5 |
| 20260508185918 | 23 | 158 | 14.5 | 22.5 | 0.00 | 1.47 | 1.47 | 69 | 1009.8 |
| 20260508185417 | 23 | 177 | 12.9 | 22.5 | 0.00 | 1.47 | 1.47 | 70 | 1009.7 |
| 20260508184419 | 23 | 157 | 11.3 | 25.7 | 0.00 | 1.47 | 1.47 | 71 | 1009.8 |
| 20260508183917 | 23 | 171 | 11.3 | 25.7 | 0.00 | 1.47 | 1.47 | 69 | 1009.8 |
| 20260508182917 | 22 | 169 | 8.0 | 24.1 | 0.00 | 1.47 | 1.47 | 71 | 1010.0 |
| 20260508181918 | 23 | 171 | 6.4 | 19.3 | 0.00 | 1.47 | 1.47 | 72 | 1010.3 |
| 20260508181417 | 22 | 172 | 3.2 | 19.3 | 0.00 | 1.47 | 1.47 | 72 | 1010.4 |
| 20260508180918 | 22 | 215 | 6.4 | 24.1 | 0.00 | 1.47 | 1.47 | 71 | 1010.4 |
| 20260508180417 | 22 | 170 | 14.5 | 24.1 | 0.00 | 1.47 | 1.47 | 70 | 1010.7 |
| 20260508175417 | 22 | 171 | 12.9 | 19.3 | 0.00 | 1.47 | 1.47 | 72 | 1010.7 |
| 20260508174918 | 22 | 188 | 1.6 | 19.3 | 0.00 | 1.47 | 1.47 | 72 | 1010.9 |
| 20260508173417 | 22 | 166 | 11.3 | 19.3 | 0.00 | 1.47 | 1.47 | 71 | 1011.0 |
| 20260508172917 | 22 | 124 | 9.7 | 19.3 | 0.00 | 1.47 | 1.47 | 71 | 1011.1 |
| 20260508172418 | 22 | 142 | 8.0 | 19.3 | 0.00 | 1.47 | 1.47 | 71 | 1011.2 |
| 20260508171918 | 21 | 145 | 6.4 | 19.3 | 0.00 | 1.47 | 1.47 | 74 | 1011.3 |
| 20260508171417 | 21 | 160 | 9.7 | 19.3 | 0.00 | 1.47 | 1.47 | 73 | 1011.3 |
| 20260508170917 | 21 | 130 | 9.7 | 20.9 | 0.00 | 1.47 | 1.47 | 73 | 1011.5 |
| 20260508170418 | 21 | 152 | 12.9 | 20.9 | 0.00 | 1.47 | 1.47 | 72 | 1011.7 |
| 20260508165917 | 21 | 153 | 11.3 | 19.3 | 0.00 | 1.47 | 1.47 | 73 | 1011.8 |
| 20260508165418 | 21 | 179 | 11.3 | 20.9 | 0.00 | 1.47 | 1.47 | 75 | 1011.8 |
| 20260508164418 | 20 | 144 | 14.5 | 20.9 | 0.00 | 1.47 | 1.47 | 74 | 1012.1 |
| 20260508163918 | 20 | 174 | 8.0 | 19.3 | 0.00 | 1.47 | 1.47 | 76 | 1012.2 |
| 20260508162918 | 20 | 157 | 11.3 | 22.5 | 0.00 | 1.47 | 1.47 | 76 | 1012.5 |
| 20260508162418 | 20 | 149 | 12.9 | 19.3 | 0.00 | 1.47 | 1.47 | 75 | 1012.5 |